Swansboro, NC

11:57 PM EST on February 24, 2018 (GMT -0500)
Bogue McAlf

Weather History for KNJM - August, 2012

Change the Weather History Date:

Tuesday, August 28, 2012

  Actual Average (KNKT) Record (KNKT)
Temperature  
Mean Temperature 78 °F -  
Max Temperature 82 °F 83 °F 93 °F (2003)
Min Temperature 75 °F 68 °F 66 °F (2014)
Cooling Degree Days 14    
Growing Degree Days 28 (Base 50)    
Moisture  
Dew Point 74 °F    
Average Humidity 89    
Maximum Humidity 94    
Minimum Humidity 79    
Precipitation  
Precipitation 0.11 in - - ()
Sea Level Pressure  
Sea Level Pressure 30.02 in    
Wind  
Wind Speed 6 mph (SW)    
Max Wind Speed 18 mph    
Max Gust Speed 30 mph    
Visibility 9 miles    
Events Rain , Thunderstorm    
Averages and records for this station are not official NWS values.
T = Trace of Precipitation, MM = Missing Value Source: NWS Daily Summary

Daily Weather History Graph

Daily Weather History Graph

Search for Another Location

Airport or City:

Trip Planner

Search our weather history database for the weather conditions in past years. The results will help you decide how hot, cold, wet, or windy it might be!

Date:

Astronomy

Aug. 28, 2012 Rise Set
Actual Time 6:38 AM EDT 7:39 PM EDT
Civil Twilight 6:12 AM EDT 8:05 PM EDT
Nautical Twilight 5:41 AM EDT 8:35 PM EDT
Astronomical Twilight 5:10 AM EDT 9:07 PM EDT
Moon 5:36 PM EDT (8/28) 3:31 AM EDT (8/28)
Length of Visible Light 13h 52m
Length of Day
13h 00m
Waxing Gibbous, 90% of the Moon is Illuminated
Aug 28
Waxing Gibbous
Aug 31
Full
Sep 8
Last Quarter
Sep 15
New
Sep 22
First Quarter

Hourly Weather History & Observations

Time (EDT) Temp. Heat Index Dew Point Humidity Pressure Visibility Wind Dir Wind Speed Gust Speed Precip Events Conditions
12:57 AM 77.0 °F - 73.9 °F 90% 30.06 in 10.0 mi Calm Calm - N/A   Clear
1:26 AM 78.8 °F - 75.2 °F 89% 30.04 in 10.0 mi SSW 3.5 mph - N/A   Mostly Cloudy
1:40 AM 78.8 °F - 75.2 °F 89% 30.04 in 10.0 mi SSW 3.5 mph - N/A   Mostly Cloudy
1:57 AM 79.0 °F - 75.9 °F 90% 30.05 in 10.0 mi SSW 4.6 mph - N/A   Partly Cloudy
2:29 AM 80.6 °F 86.2 °F 75.2 °F 84% 30.03 in 10.0 mi SW 3.5 mph - N/A   Mostly Cloudy
2:43 AM 78.8 °F - 75.2 °F 89% 30.03 in 10.0 mi SW 5.8 mph - N/A   Scattered Clouds
2:57 AM 79.0 °F - 75.9 °F 90% 30.04 in 10.0 mi SW 5.8 mph - N/A   Clear
3:57 AM 79.0 °F - 75.0 °F 88% 30.03 in 10.0 mi SSW 5.8 mph - N/A   Clear
4:57 AM 79.0 °F - 75.0 °F 88% 30.03 in 10.0 mi SW 5.8 mph - N/A   Partly Cloudy
5:57 AM 79.0 °F - 75.0 °F 88% 30.03 in 10.0 mi SW 4.6 mph - N/A   Clear
6:49 AM 78.8 °F - 75.2 °F 89% 30.02 in 10.0 mi Calm Calm - N/A   Mostly Cloudy
6:57 AM 79.0 °F - 75.9 °F 90% 30.04 in 10.0 mi SSW 4.6 mph - N/A   Scattered Clouds
7:57 AM 80.1 °F 85.4 °F 75.9 °F 87% 30.05 in 10.0 mi SSW 5.8 mph - N/A   Mostly Cloudy
8:57 AM 81.0 °F 87.9 °F 77.0 °F 88% 30.05 in 10.0 mi SSW 5.8 mph - N/A   Mostly Cloudy
9:57 AM 82.0 °F 88.6 °F 75.0 °F 79% 30.05 in 10.0 mi SW 6.9 mph - N/A   Mostly Cloudy
10:47 AM 80.6 °F 86.2 °F 75.2 °F 84% 30.04 in 10.0 mi SW 9.2 mph - N/A   Mostly Cloudy
10:57 AM 78.1 °F - 73.0 °F 84% 30.06 in 10.0 mi WSW 18.4 mph 29.9 mph N/A   Mostly Cloudy
11:17 AM 75.2 °F - 71.6 °F 89% 30.05 in 3.0 mi West 9.2 mph 25.3 mph 0.02 in Rain , Thunderstorm Thunderstorms and Rain
12:04 PM 75.2 °F - 73.4 °F 94% 30.03 in 5.0 mi WNW 3.5 mph - N/A   Overcast
12:57 PM 75.9 °F - 73.9 °F 94% 30.04 in 10.0 mi Calm Calm - 0.02 in Rain Light Rain
1:57 PM 77.0 °F - 73.0 °F 88% 30.03 in 10.0 mi SW 6.9 mph - 0.01 in Rain Light Rain
2:57 PM 78.1 °F - 73.9 °F 87% 30.02 in 10.0 mi SW 9.2 mph - 0.00 in Rain Light Rain
3:57 PM 78.1 °F - 73.0 °F 84% 30.02 in 10.0 mi SSW 11.5 mph - 0.00 in Rain Light Rain
5:50 PM 75.2 °F - 73.4 °F 94% 30.01 in 4.0 mi SW 10.4 mph - N/A Rain Rain
5:57 PM 75.0 °F - 73.0 °F 94% 30.01 in 4.0 mi SSW 13.8 mph 19.6 mph N/A Rain Rain
6:06 PM 75.2 °F - 73.4 °F 94% 30.00 in 4.0 mi SSW 12.7 mph 19.6 mph 0.01 in Rain Rain
6:16 PM 75.2 °F - 73.4 °F 94% 30.00 in 3.0 mi SSW 10.4 mph - 0.04 in Rain Rain
6:45 PM 75.2 °F - 73.4 °F 94% 29.99 in 7.0 mi SW 10.4 mph - 0.06 in Rain Light Rain
6:57 PM 75.9 °F - 73.0 °F 91% 30.00 in 7.0 mi SSW 11.5 mph - 0.07 in Rain Light Rain
7:26 PM 75.2 °F - 73.4 °F 94% 29.98 in 10.0 mi SW 8.1 mph - 0.00 in Rain Light Rain
7:49 PM 75.2 °F - 73.4 °F 94% 29.97 in 10.0 mi SW 9.2 mph - 0.01 in Rain Light Rain
7:57 PM 75.9 °F - 73.0 °F 91% 29.97 in 10.0 mi SW 9.2 mph - 0.01 in Rain Light Rain
8:57 PM 77.0 °F - 73.0 °F 88% 29.97 in 10.0 mi SW 10.4 mph - 0.00 in   Scattered Clouds
9:13 PM 77.0 °F - 73.4 °F 89% 29.96 in 10.0 mi SW 9.2 mph - 0.00 in Rain Light Rain
9:57 PM 77.0 °F - 73.0 °F 88% 29.98 in 10.0 mi West 5.8 mph 19.6 mph 0.00 in   Mostly Cloudy
11:57 PM 75.9 °F - 73.0 °F 91% 30.00 in 10.0 mi West 5.8 mph - N/A   Overcast